GIA537 WAOO-WIII

Flight info

Callsign GIA537
Flight time 1h 26m
Altitude 34000
Route DUNIA W18 AKSOX
Aircraft B738/M-SDE2E3FGHIRWXY/LB1

Departure

Time 2026-04-25 04:05
Airport Syamsudin Noor International Airport (WAOO)

Arrival

Time 2026-04-25 05:32
Airport Soekarno-Hatta International Airport (WIII)
Time Latitude Longitude Altitude Speed Heading
2026-04-25 03:32 -3.43836 114.75975 74 ft 0 kts 10°
2026-04-25 03:52 -3.43846 114.75973 46 ft 3 kts
2026-04-25 03:53 -3.43866 114.75971 67 ft 3 kts
2026-04-25 03:53 -3.43880 114.75970 67 ft 3 kts 358°
2026-04-25 03:53 -3.43906 114.75974 74 ft 3 kts 337°
2026-04-25 03:53 -3.43921 114.75983 66 ft 3 kts 295°
2026-04-25 03:54 -3.43923 114.75988 68 ft 1 kts 280°
2026-04-25 03:54 -3.43923 114.75989 74 ft 1 kts 280°
2026-04-25 03:57 -3.43923 114.75988 74 ft 0 kts 280°
2026-04-25 03:58 -3.43921 114.75974 65 ft 4 kts 279°
2026-04-25 03:58 -3.43916 114.75949 67 ft 3 kts 281°
2026-04-25 03:58 -3.43909 114.75911 74 ft 7 kts 281°
2026-04-25 03:58 -3.43898 114.75851 74 ft 11 kts 280°
2026-04-25 03:59 -3.43884 114.75779 74 ft 10 kts 281°
2026-04-25 03:59 -3.43886 114.75710 74 ft 10 kts 227°
2026-04-25 03:59 -3.43947 114.75692 70 ft 9 kts 191°
2026-04-25 03:59 -3.44001 114.75682 71 ft 3 kts 191°
2026-04-25 04:00 -3.44002 114.75682 74 ft 0 kts 191°
2026-04-25 04:01 -3.44004 114.75682 74 ft 3 kts 191°
2026-04-25 04:02 -3.44076 114.75668 66 ft 14 kts 191°
2026-04-25 04:02 -3.44109 114.75591 73 ft 14 kts 277°
2026-04-25 04:02 -3.44091 114.75490 68 ft 17 kts 280°
2026-04-25 04:02 -3.44066 114.75357 71 ft 20 kts 281°
2026-04-25 04:03 -3.44039 114.75252 68 ft 13 kts 296°
2026-04-25 04:03 -3.44010 114.75188 67 ft 1 kts 246°
2026-04-25 04:03 -3.44017 114.75185 72 ft 1 kts 195°
2026-04-25 04:03 -3.44026 114.75191 69 ft 2 kts 145°
2026-04-25 04:04 -3.44034 114.75203 71 ft 3 kts 121°
2026-04-25 04:04 -3.44037 114.75210 70 ft 0 kts 106°
2026-04-25 04:04 -3.44038 114.75216 71 ft 5 kts 103°
2026-04-25 04:04 -3.44088 114.75481 68 ft 75 kts 100°
2026-04-25 04:05 -3.44222 114.76216 66 ft 138 kts 99°
2026-04-25 04:05 -3.44439 114.77330 202 ft 182 kts 99°
2026-04-25 04:05 -3.44685 114.78549 1119 ft 167 kts 96°
2026-04-25 04:05 -3.44968 114.79598 2187 ft 156 kts 124°
2026-04-25 04:06 -3.45909 114.80200 2652 ft 183 kts 165°
2026-04-25 04:06 -3.47257 114.80014 2944 ft 216 kts 209°
2026-04-25 04:06 -3.48327 114.78870 3156 ft 239 kts 240°
2026-04-25 04:06 -3.49164 114.77361 3459 ft 255 kts 242°
2026-04-25 04:07 -3.50024 114.75790 3957 ft 259 kts 242°
2026-04-25 04:07 -3.50902 114.74205 4495 ft 262 kts 241°
2026-04-25 04:07 -3.51801 114.72602 4992 ft 269 kts 241°
2026-04-25 04:07 -3.52752 114.70912 5308 ft 285 kts 243°
2026-04-25 04:08 -3.53486 114.69038 5939 ft 291 kts 253°
2026-04-25 04:08 -3.54030 114.67092 6729 ft 291 kts 256°
2026-04-25 04:08 -3.54539 114.65118 7427 ft 295 kts 256°
2026-04-25 04:08 -3.55054 114.63121 8120 ft 298 kts 255°
2026-04-25 04:09 -3.55585 114.61096 8807 ft 302 kts 255°
2026-04-25 04:09 -3.56127 114.59072 9482 ft 307 kts 254°
2026-04-25 04:09 -3.56691 114.56997 10118 ft 311 kts 254°
2026-04-25 04:09 -3.57279 114.54858 10412 ft 329 kts 254°
2026-04-25 04:10 -3.57912 114.52576 10570 ft 350 kts 254°
2026-04-25 04:10 -3.58586 114.50162 10712 ft 369 kts 253°
2026-04-25 04:10 -3.59295 114.47628 10945 ft 383 kts 253°
2026-04-25 04:10 -3.60022 114.45035 11394 ft 389 kts 253°
2026-04-25 04:11 -3.61452 114.39935 12891 ft 384 kts 253°
2026-04-25 04:11 -3.62189 114.37315 13174 ft 396 kts 253°
2026-04-25 04:11 -3.62942 114.34636 13647 ft 402 kts 253°
2026-04-25 04:12 -3.63702 114.31935 14171 ft 404 kts 253°
2026-04-25 04:12 -3.64463 114.29224 14752 ft 405 kts 253°
2026-04-25 04:12 -3.65229 114.26499 15256 ft 408 kts 253°
2026-04-25 04:12 -3.66001 114.23750 15734 ft 412 kts 253°
2026-04-25 04:13 -3.66781 114.20977 16224 ft 415 kts 253°
2026-04-25 04:13 -3.67566 114.18180 16718 ft 418 kts 253°
2026-04-25 04:13 -3.68356 114.15368 17205 ft 421 kts 253°
2026-04-25 04:13 -3.69153 114.12530 17684 ft 424 kts 253°
2026-04-25 04:14 -3.69954 114.09678 18144 ft 427 kts 253°
2026-04-25 04:14 -3.70761 114.06805 18537 ft 430 kts 253°
2026-04-25 04:14 -3.71572 114.03917 18935 ft 432 kts 254°
2026-04-25 04:14 -3.72386 114.01014 19336 ft 434 kts 254°
2026-04-25 04:15 -3.73178 113.98192 19709 ft 436 kts 254°
2026-04-25 04:15 -3.74002 113.95255 20076 ft 439 kts 254°
2026-04-25 04:15 -3.74831 113.92302 20451 ft 441 kts 254°
2026-04-25 04:15 -3.75665 113.89330 20821 ft 443 kts 254°
2026-04-25 04:16 -3.76500 113.86351 21183 ft 446 kts 254°
2026-04-25 04:16 -3.77342 113.83350 21534 ft 448 kts 253°
2026-04-25 04:16 -3.78175 113.80381 21869 ft 450 kts 253°
2026-04-25 04:16 -3.78939 113.77656 22167 ft 452 kts 253°
2026-04-25 04:17 -3.79794 113.74605 22498 ft 454 kts 253°
2026-04-25 04:17 -3.80629 113.71627 22811 ft 456 kts 253°
2026-04-25 04:17 -3.81481 113.68588 23122 ft 458 kts 253°
2026-04-25 04:17 -3.82344 113.65508 23422 ft 460 kts 253°
2026-04-25 04:18 -3.83210 113.62416 23681 ft 462 kts 253°
2026-04-25 04:18 -3.84080 113.59308 23935 ft 464 kts 253°
2026-04-25 04:18 -3.84952 113.56196 24184 ft 465 kts 254°
2026-04-25 04:18 -3.85828 113.53068 24398 ft 468 kts 254°
2026-04-25 04:19 -3.86708 113.49928 24644 ft 469 kts 254°
2026-04-25 04:19 -3.87590 113.46775 24868 ft 471 kts 254°
2026-04-25 04:19 -3.88477 113.43606 25122 ft 472 kts 254°
2026-04-25 04:19 -3.89363 113.40441 25362 ft 473 kts 253°
2026-04-25 04:20 -3.90254 113.37255 25547 ft 477 kts 253°
2026-04-25 04:20 -3.91150 113.34056 25783 ft 477 kts 253°
2026-04-25 04:20 -3.92034 113.30895 26044 ft 478 kts 253°
2026-04-25 04:20 -3.92932 113.27683 26230 ft 480 kts 253°
2026-04-25 04:21 -3.93835 113.24452 26475 ft 481 kts 253°
2026-04-25 04:21 -3.94738 113.21224 26711 ft 482 kts 253°
2026-04-25 04:21 -3.95645 113.17976 26881 ft 484 kts 253°
2026-04-25 04:21 -3.96557 113.14718 27118 ft 485 kts 253°
2026-04-25 04:22 -3.97537 113.11479 27327 ft 486 kts 251°
2026-04-25 04:22 -3.98612 113.08258 27482 ft 488 kts 250°
2026-04-25 04:22 -3.99729 113.05049 27710 ft 489 kts 250°
2026-04-25 04:22 -4.00862 113.01832 27902 ft 490 kts 249°
2026-04-25 04:23 -4.01971 112.98673 28073 ft 492 kts 250°
2026-04-25 04:23 -4.03094 112.95444 28316 ft 491 kts 250°
2026-04-25 04:23 -4.04198 112.92242 28461 ft 494 kts 250°
2026-04-25 04:23 -4.05314 112.88986 28643 ft 494 kts 250°
2026-04-25 04:24 -4.06426 112.85726 28842 ft 495 kts 250°
2026-04-25 04:24 -4.07540 112.82456 29011 ft 496 kts 250°
2026-04-25 04:24 -4.08654 112.79183 29283 ft 495 kts 250°
2026-04-25 04:24 -4.09764 112.75923 29542 ft 495 kts 250°
2026-04-25 04:25 -4.10878 112.72654 29691 ft 496 kts 250°
2026-04-25 04:25 -4.12060 112.69407 29966 ft 494 kts 243°
2026-04-25 04:25 -4.13925 112.66541 30168 ft 491 kts 228°
2026-04-25 04:25 -4.16315 112.64126 30428 ft 487 kts 218°
2026-04-25 04:26 -4.19073 112.62173 30609 ft 485 kts 207°
2026-04-25 04:26 -4.22114 112.60703 30779 ft 485 kts 203°
2026-04-25 04:26 -4.25179 112.59285 30966 ft 486 kts 203°
2026-04-25 04:26 -4.28242 112.57816 31128 ft 488 kts 204°
2026-04-25 04:27 -4.31223 112.56300 31363 ft 488 kts 210°
2026-04-25 04:27 -4.33869 112.54094 31551 ft 492 kts 228°
2026-04-25 04:27 -4.35806 112.51283 31842 ft 491 kts 243°
2026-04-25 04:27 -4.37066 112.48102 32123 ft 491 kts 251°
2026-04-25 04:28 -4.38146 112.44857 32297 ft 492 kts 252°
2026-04-25 04:28 -4.39182 112.41641 32586 ft 490 kts 252°
2026-04-25 04:28 -4.40231 112.38388 32836 ft 490 kts 252°
2026-04-25 04:28 -4.41294 112.35139 33095 ft 490 kts 252°
2026-04-25 04:29 -4.42368 112.31910 33434 ft 488 kts 252°
2026-04-25 04:29 -4.43454 112.28687 33659 ft 488 kts 252°
2026-04-25 04:29 -4.44541 112.25483 33866 ft 482 kts 251°
2026-04-25 04:30 -4.46691 112.19182 33896 ft 484 kts 251°
2026-04-25 04:30 -4.48901 112.12701 33891 ft 490 kts 251°
2026-04-25 04:31 -4.51103 112.06209 33895 ft 493 kts 251°
2026-04-25 04:31 -4.53278 111.99798 33893 ft 493 kts 251°
2026-04-25 04:32 -4.55469 111.93341 33877 ft 487 kts 251°
2026-04-25 04:32 -4.57648 111.86928 33884 ft 483 kts 251°
2026-04-25 04:33 -4.59466 111.80471 33884 ft 481 kts 263°
2026-04-25 04:33 -4.59783 111.73766 33905 ft 484 kts 269°
2026-04-25 04:34 -4.59961 111.66967 33892 ft 489 kts 269°
2026-04-25 04:34 -4.60199 111.60184 33892 ft 491 kts 268°
2026-04-25 04:35 -4.60476 111.53341 33885 ft 491 kts 268°
2026-04-25 04:35 -4.60758 111.46486 33892 ft 491 kts 268°
2026-04-25 04:36 -4.61034 111.39656 33886 ft 491 kts 268°
2026-04-25 04:36 -4.61307 111.32838 33893 ft 489 kts 268°
2026-04-25 04:37 -4.61579 111.26029 33891 ft 489 kts 268°
2026-04-25 04:37 -4.62723 111.19341 33891 ft 488 kts 252°
2026-04-25 04:38 -4.64877 111.12892 33897 ft 487 kts 251°
2026-04-25 04:38 -4.67020 111.06478 33884 ft 484 kts 251°
2026-04-25 04:39 -4.69104 111.00080 33884 ft 481 kts 251°
2026-04-25 04:39 -4.71125 110.93808 33889 ft 478 kts 251°
2026-04-25 04:40 -4.73166 110.87466 33889 ft 477 kts 251°
2026-04-25 04:40 -4.75200 110.81149 33884 ft 476 kts 251°
2026-04-25 04:41 -4.77232 110.74840 33893 ft 475 kts 251°
2026-04-25 04:41 -4.79247 110.68583 33890 ft 474 kts 251°
2026-04-25 04:42 -4.81271 110.62293 33887 ft 474 kts 251°
2026-04-25 04:42 -4.83296 110.56001 33889 ft 474 kts 251°
2026-04-25 04:43 -4.85322 110.49701 33890 ft 475 kts 251°
2026-04-25 04:43 -4.87008 110.44457 33880 ft 476 kts 251°
2026-04-25 04:44 -4.89014 110.38119 33893 ft 478 kts 252°
2026-04-25 04:44 -4.90962 110.31738 33896 ft 480 kts 252°
2026-04-25 04:45 -4.92911 110.25326 33892 ft 481 kts 252°
2026-04-25 04:45 -4.94873 110.18894 33888 ft 483 kts 253°
2026-04-25 04:45 -4.95407 110.15572 33881 ft 484 kts 270°
2026-04-25 04:46 -4.95118 110.12216 33888 ft 485 kts 280°
2026-04-25 04:46 -4.94235 110.08997 33895 ft 485 kts 291°
2026-04-25 04:46 -4.92750 110.05914 33896 ft 485 kts 299°
2026-04-25 04:47 -4.89451 110.00001 33891 ft 487 kts 298°
2026-04-25 04:47 -4.86682 109.93947 33874 ft 487 kts 281°
2026-04-25 04:47 -4.86370 109.90582 33896 ft 485 kts 266°
2026-04-25 04:48 -4.86932 109.87262 33915 ft 483 kts 253°
2026-04-25 04:48 -4.88941 109.80819 33895 ft 483 kts 251°
2026-04-25 04:49 -4.91011 109.74398 33889 ft 484 kts 252°
2026-04-25 04:49 -4.93021 109.67959 33900 ft 484 kts 252°
2026-04-25 04:50 -4.94981 109.61554 33894 ft 484 kts 252°
2026-04-25 04:50 -4.96947 109.55096 33889 ft 484 kts 252°
2026-04-25 04:51 -4.98915 109.48640 33899 ft 483 kts 252°
2026-04-25 04:51 -5.00879 109.42200 33901 ft 483 kts 252°
2026-04-25 04:52 -5.02846 109.35752 33895 ft 483 kts 252°
2026-04-25 04:52 -5.04812 109.29302 33898 ft 484 kts 252°
2026-04-25 04:53 -5.06765 109.22892 33910 ft 484 kts 252°
2026-04-25 04:53 -5.08734 109.16428 33902 ft 484 kts 252°
2026-04-25 04:54 -5.10701 109.09968 33892 ft 484 kts 252°
2026-04-25 04:54 -5.12653 109.03552 33880 ft 472 kts 252°
2026-04-25 04:55 -5.14573 108.97314 33901 ft 472 kts 251°
2026-04-25 04:55 -5.16633 108.91078 33890 ft 469 kts 250°
2026-04-25 04:56 -5.18705 108.84892 33894 ft 467 kts 250°
2026-04-25 04:56 -5.20744 108.78752 33904 ft 465 kts 251°
2026-04-25 04:57 -5.22775 108.72602 33900 ft 464 kts 251°
2026-04-25 04:57 -5.24800 108.66458 33898 ft 464 kts 251°
2026-04-25 04:58 -5.26825 108.60313 33906 ft 464 kts 251°
2026-04-25 04:58 -5.28854 108.54156 33902 ft 465 kts 251°
2026-04-25 04:59 -5.31285 108.48223 33883 ft 462 kts 231°
2026-04-25 04:59 -5.33565 108.45983 33915 ft 459 kts 216°
2026-04-25 04:59 -5.36219 108.44206 33909 ft 458 kts 209°
2026-04-25 05:00 -5.41823 108.41124 33888 ft 460 kts 206°
2026-04-25 05:00 -5.47541 108.38195 33906 ft 463 kts 206°
2026-04-25 05:01 -5.52650 108.34322 33903 ft 468 kts 236°
2026-04-25 05:01 -5.54154 108.31429 33920 ft 470 kts 247°
2026-04-25 05:01 -5.55253 108.28334 33894 ft 472 kts 255°
2026-04-25 05:02 -5.57583 108.22217 33904 ft 472 kts 234°
2026-04-25 05:02 -5.59736 108.19743 33892 ft 471 kts 219°
2026-04-25 05:02 -5.62494 108.18019 33895 ft 468 kts 199°
2026-04-25 05:03 -5.68687 108.16193 33892 ft 468 kts 198°
2026-04-25 05:03 -5.74486 108.13446 33890 ft 454 kts 210°
2026-04-25 05:04 -5.79729 108.09930 33751 ft 457 kts 214°
2026-04-25 05:04 -5.82358 108.08071 33127 ft 463 kts 214°
2026-04-25 05:04 -5.85002 108.06215 32455 ft 465 kts 214°
2026-04-25 05:04 -5.87671 108.04371 31741 ft 465 kts 213°
2026-04-25 05:05 -5.90345 108.02540 31252 ft 460 kts 213°
2026-04-25 05:05 -5.92866 108.00636 31071 ft 450 kts 224°
2026-04-25 05:05 -5.94706 107.98205 30920 ft 451 kts 241°
2026-04-25 05:05 -5.95928 107.95302 30361 ft 465 kts 256°
2026-04-25 05:06 -5.96329 107.92079 29830 ft 467 kts 269°
2026-04-25 05:06 -5.96302 107.88842 29216 ft 458 kts 271°
2026-04-25 05:06 -5.96245 107.85652 28170 ft 455 kts 271°
2026-04-25 05:06 -5.96198 107.82446 26983 ft 466 kts 271°
2026-04-25 05:07 -5.96171 107.79149 25964 ft 473 kts 270°
2026-04-25 05:07 -5.96163 107.75845 25335 ft 470 kts 270°
2026-04-25 05:07 -5.96164 107.72589 25181 ft 466 kts 270°
2026-04-25 05:07 -5.96167 107.69312 25076 ft 473 kts 270°
2026-04-25 05:08 -5.96167 107.66006 24959 ft 473 kts 270°
2026-04-25 05:08 -5.96167 107.62714 24480 ft 471 kts 270°
2026-04-25 05:08 -5.96168 107.59484 23945 ft 463 kts 270°
2026-04-25 05:08 -5.96169 107.56265 23353 ft 459 kts 270°
2026-04-25 05:09 -5.96169 107.53076 22720 ft 453 kts 270°
2026-04-25 05:09 -5.96170 107.49934 22137 ft 445 kts 270°
2026-04-25 05:09 -5.96170 107.46839 21588 ft 440 kts 270°
2026-04-25 05:09 -5.96169 107.43780 21046 ft 434 kts 271°
2026-04-25 05:10 -5.96169 107.40795 20510 ft 420 kts 271°
2026-04-25 05:10 -5.96169 107.37944 20011 ft 407 kts 271°
2026-04-25 05:10 -5.96169 107.35143 19525 ft 395 kts 271°
2026-04-25 05:10 -5.96168 107.32407 19041 ft 388 kts 271°
2026-04-25 05:11 -5.96166 107.29695 18564 ft 388 kts 271°
2026-04-25 05:11 -5.96161 107.26988 18077 ft 388 kts 271°
2026-04-25 05:11 -5.96157 107.24313 17542 ft 378 kts 271°
2026-04-25 05:12 -5.96148 107.19168 16623 ft 359 kts 271°
2026-04-25 05:12 -5.96144 107.16691 16190 ft 350 kts 271°
2026-04-25 05:12 -5.96140 107.14264 15779 ft 346 kts 271°
2026-04-25 05:12 -5.96135 107.11844 15371 ft 347 kts 270°
2026-04-25 05:13 -5.96130 107.09423 14953 ft 347 kts 270°
2026-04-25 05:13 -5.96126 107.06990 14513 ft 349 kts 270°
2026-04-25 05:13 -5.96121 107.04554 14081 ft 350 kts 270°
2026-04-25 05:13 -5.96116 107.02143 13676 ft 350 kts 270°
2026-04-25 05:14 -5.96110 106.99753 13245 ft 346 kts 270°
2026-04-25 05:14 -5.96105 106.97370 12843 ft 337 kts 270°
2026-04-25 05:14 -5.96099 106.95047 12462 ft 328 kts 270°
2026-04-25 05:15 -5.96088 106.90575 11755 ft 314 kts 270°
2026-04-25 05:15 -5.96082 106.88390 11514 ft 312 kts 271°
2026-04-25 05:15 -5.96076 106.86192 11188 ft 317 kts 271°
2026-04-25 05:15 -5.96069 106.83956 10857 ft 322 kts 271°
2026-04-25 05:16 -5.96063 106.81701 10498 ft 322 kts 271°
2026-04-25 05:16 -5.96057 106.79452 10135 ft 322 kts 271°
2026-04-25 05:16 -5.95831 106.77279 10016 ft 302 kts 289°
2026-04-25 05:16 -5.94868 106.75507 9994 ft 278 kts 314°
2026-04-25 05:17 -5.93436 106.74335 9999 ft 259 kts 335°
2026-04-25 05:17 -5.91762 106.73716 10014 ft 255 kts 353°
2026-04-25 05:17 -5.90036 106.73651 10014 ft 250 kts 11°
2026-04-25 05:17 -5.88387 106.74134 10017 ft 246 kts 29°
2026-04-25 05:18 -5.87003 106.75106 10026 ft 243 kts 47°
2026-04-25 05:18 -5.85962 106.76452 10029 ft 247 kts 60°
2026-04-25 05:18 -5.85281 106.78030 10012 ft 246 kts 77°
2026-04-25 05:18 -5.85301 106.79741 10035 ft 256 kts 104°
2026-04-25 05:19 -5.86167 106.81376 10026 ft 276 kts 130°
2026-04-25 05:19 -5.87762 106.82504 10021 ft 288 kts 156°
2026-04-25 05:19 -5.89750 106.82776 10003 ft 293 kts 185°
2026-04-25 05:19 -5.91643 106.82117 10024 ft 294 kts 208°
2026-04-25 05:20 -5.93334 106.80966 10022 ft 293 kts 215°
2026-04-25 05:20 -5.94971 106.79737 10006 ft 293 kts 216°
2026-04-25 05:20 -5.96335 106.78219 9923 ft 299 kts 241°
2026-04-25 05:20 -5.97185 106.76270 9519 ft 308 kts 248°
2026-04-25 05:21 -5.97974 106.74258 9101 ft 310 kts 248°
2026-04-25 05:21 -5.98766 106.72236 8705 ft 311 kts 248°
2026-04-25 05:21 -5.99567 106.70214 8311 ft 312 kts 248°
2026-04-25 05:21 -6.00374 106.68193 7913 ft 311 kts 248°
2026-04-25 05:22 -6.01177 106.66197 7523 ft 304 kts 248°
2026-04-25 05:22 -6.01964 106.64246 7144 ft 298 kts 248°
2026-04-25 05:22 -6.02738 106.62332 6794 ft 292 kts 247°
2026-04-25 05:22 -6.03488 106.60481 6427 ft 289 kts 247°
2026-04-25 05:23 -6.04248 106.58602 6064 ft 292 kts 247°
2026-04-25 05:23 -6.05019 106.56694 5669 ft 289 kts 247°
2026-04-25 05:23 -6.05756 106.54869 5334 ft 282 kts 247°
2026-04-25 05:23 -6.06486 106.53061 4989 ft 277 kts 248°
2026-04-25 05:24 -6.07203 106.51284 4668 ft 272 kts 247°
2026-04-25 05:24 -6.07908 106.49539 4334 ft 268 kts 247°
2026-04-25 05:24 -6.08601 106.47821 4010 ft 263 kts 246°
2026-04-25 05:24 -6.09283 106.46132 3732 ft 256 kts 247°
2026-04-25 05:25 -6.09940 106.44506 3424 ft 246 kts 246°
2026-04-25 05:25 -6.10854 106.43114 3083 ft 235 kts 216°
2026-04-25 05:25 -6.12269 106.42453 2852 ft 219 kts 188°
2026-04-25 05:25 -6.13753 106.42403 2614 ft 210 kts 168°
2026-04-25 05:26 -6.15173 106.42629 2383 ft 204 kts 165°
2026-04-25 05:26 -6.16520 106.42972 2152 ft 195 kts 147°
2026-04-25 05:26 -6.17428 106.43878 2042 ft 177 kts 115°
2026-04-25 05:26 -6.17726 106.44993 2018 ft 161 kts 92°
2026-04-25 05:27 -6.17842 106.46144 2013 ft 167 kts 94°
2026-04-25 05:27 -6.17968 106.47305 2001 ft 167 kts 94°
2026-04-25 05:27 -6.18058 106.48466 1994 ft 167 kts 83°
2026-04-25 05:27 -6.17722 106.49535 2022 ft 164 kts 69°
2026-04-25 05:28 -6.17336 106.50633 2029 ft 167 kts 70°
2026-04-25 05:28 -6.16934 106.51718 2003 ft 164 kts 70°
2026-04-25 05:28 -6.16517 106.52778 2006 ft 162 kts 68°
2026-04-25 05:28 -6.16102 106.53825 1995 ft 164 kts 69°
2026-04-25 05:29 -6.15679 106.54888 1864 ft 161 kts 68°
2026-04-25 05:29 -6.15274 106.55905 1677 ft 152 kts 67°
2026-04-25 05:29 -6.14878 106.56895 1469 ft 150 kts 67°
2026-04-25 05:29 -6.14497 106.57849 1252 ft 145 kts 66°
2026-04-25 05:30 -6.14128 106.58779 1105 ft 143 kts 67°
2026-04-25 05:30 -6.13760 106.59703 906 ft 140 kts 68°
2026-04-25 05:30 -6.13404 106.60612 726 ft 144 kts 67°
2026-04-25 05:30 -6.13041 106.61558 537 ft 146 kts 66°
2026-04-25 05:31 -6.12680 106.62471 458 ft 135 kts 64°
2026-04-25 05:31 -6.12309 106.63334 213 ft 134 kts 67°
2026-04-25 05:31 -6.11990 106.64191 45 ft 126 kts 66°
2026-04-25 05:31 -6.11691 106.64914 41 ft 94 kts 68°
2026-04-25 05:32 -6.11504 106.65383 37 ft 51 kts 68°
2026-04-25 05:32 -6.11428 106.65574 39 ft 8 kts 68°
2026-04-25 05:32 -6.11419 106.65610 39 ft 15 kts 79°
2026-04-25 05:32 -6.11412 106.65732 38 ft 18 kts 93°
2026-04-25 05:33 -6.11438 106.65849 37 ft 14 kts 122°
2026-04-25 05:33 -6.11518 106.65902 37 ft 14 kts 154°
2026-04-25 05:33 -6.11574 106.65929 37 ft 13 kts 154°
2026-04-25 05:33 -6.11673 106.65976 35 ft 5 kts 158°
2026-04-25 05:34 -6.11693 106.65983 37 ft 5 kts 159°
2026-04-25 05:34 -6.11724 106.65994 37 ft 5 kts 167°
2026-04-25 05:34 -6.11749 106.65976 37 ft 3 kts 236°
2026-04-25 05:34 -6.11756 106.65962 37 ft 3 kts 245°
2026-04-25 05:35 -6.11763 106.65945 37 ft 2 kts 247°
2026-04-25 05:35 -6.11766 106.65938 37 ft 0 kts 247°